COSMOS 2251 DEB

Satellite information

Favourite Embed

Satellite Type and Status

DEBRISIN ORBIT

Key statistics

Satellite COSMOS 2251 DEB at a glance.

Uptime

11710

Days in orbit

Revolutions

≈ 14.2

Per day

Orbit

LEO

Low Earth Orbit

Inclination

73.9

Latest

Satellite identification and parameters

Extended collection of information and parameters for COSMOS 2251 DEB.

Object identification

Identified? True

Debris? True

Object name: COSMOS 2251 DEB

International designator: 1993-036ATC

Object number (NORAD): 35830

Object ID (CCSDS): 35830

Country: COMMONWEALTH OF INDEPENDENT STATES (CIS)

Current information (Y/N): Y

RCS size: SMALL

Orbital parameters

Period: 101.212 minutes

Inclination: 73.8608 deg

SMA: 7194.18 km

Apoapsis: 901.704 km

Periapsis: 730.385 km

RAAN: 193.6247 deg

Eccentricy: 0.0119068

Argument of periapsis: 194.3861 deg

Mean anomaly: 165.3886 deg

Mean motion: 14.22757408 rev/day

Mean motion (dot): 0.00001645 rev/day2

B* drag term: 0.00069332 1/REarth

Two-line elements (TLE)

Creation date: July 8, 2025, 2:27 a.m.

Reference frame: TEME

Reference center: EARTH

Epoch: July 7, 2025, 6:07 p.m. UTC

TLE line 0: 0 COSMOS 2251 DEB

TLE line 1: 1 35830U 93036ATC 25188.75503479 .00001645 00000-0 69332-3 0 9996

TLE line 2: 2 35830 73.8608 193.6247 0119068 194.3861 165.3886 14.22757408590160

Live tracking on map

Real-time ground track for satellite COSMOS 2251 DEB.

In-orbit conjunctions

A list of the most updated potential collisions computed for object COSMOS 2251 DEB.

Target Orbit TCA Probability of collision Miss distance Type
CZ-4 DEB SSO 2024-09-25 15:01:33 0.0006552195 569.0 (m) DEBRIS
COSMOS 2237 LEO 2024-08-11 20:23:39 0.0002863761 199.0 (m) PAYLOAD

Associated space launch

Military communications satellite. Destroyed in a collision with Iridium 33.

COSMOS 2251 DEB was lifted into orbit during the mission ‘Kosmos-3M | Strela-2M 51’, on board a Kosmos-3M space rocket.

The launch took place on June 16, 1993, 4:17 a.m. from 132/1 (132L).

For more information about the launch, click the button.

Launch to space Kosmos-3M | Strela-2M 51
Kosmos-3M | Strela-2M 51

Agency: N/A

Status: Launch Successful

Launch date: June 16, 1993, 4:17 a.m. UTC

Rocket: Kosmos-3M

Launch pad: 132/1 (132L)

Location: Plesetsk Cosmodrome, Russian Federation

...

Latest news about this satellite

There are no fresh news available about this satellite. Check back as we update our databases every day.


Newsletter sign-up

Weekly statistics, charts and insights to help you stay on top of the space industry.